EZY31KM LFMN-EGKK

Flight info

Callsign EZY31KM
Flight time N/A
Altitude 34000
Route BADOD DCT NEDRU DCT LTP DCT BULOL DCT IDAVO DCT BAGBI DCT SIZZA DCT LAULY DCT BRY DCT CLM DCT KOPOR DCT KESAX DCT KUNAV
Aircraft A320/M-SDE2E3FGHIJ1RWXYZ/LB1

Departure

Time 2026-05-01 14:18
Airport Nice-Côte d'Azur Airport (LFMN)

Arrival

Time N/A
Airport London Gatwick Airport (EGKK)
Time Latitude Longitude Altitude Speed Heading
2026-05-01 13:42 43.65736 7.20386 21 ft 0 kts 315°
2026-05-01 13:44 43.65731 7.20392 21 ft 0 kts 315°
2026-05-01 14:05 43.65723 7.20402 21 ft 4 kts 315°
2026-05-01 14:05 43.65704 7.20429 21 ft 4 kts 315°
2026-05-01 14:05 43.65687 7.20453 21 ft 1 kts 315°
2026-05-01 14:05 43.65671 7.20477 21 ft 4 kts 294°
2026-05-01 14:06 43.65669 7.20507 21 ft 4 kts 232°
2026-05-01 14:06 43.65685 7.20530 21 ft 2 kts 225°
2026-05-01 14:06 43.65686 7.20532 21 ft 0 kts 225°
2026-05-01 14:11 43.65666 7.20505 21 ft 2 kts 225°
2026-05-01 14:11 43.65651 7.20484 21 ft 4 kts 224°
2026-05-01 14:12 43.65620 7.20441 21 ft 10 kts 225°
2026-05-01 14:12 43.65558 7.20355 21 ft 14 kts 225°
2026-05-01 14:12 43.65487 7.20257 21 ft 15 kts 224°
2026-05-01 14:12 43.65417 7.20179 21 ft 11 kts 200°
2026-05-01 14:13 43.65348 7.20199 21 ft 10 kts 146°
2026-05-01 14:13 43.65316 7.20238 21 ft 9 kts 135°
2026-05-01 14:13 43.65267 7.20305 21 ft 5 kts 135°
2026-05-01 14:13 43.65245 7.20337 20 ft 4 kts 133°
2026-05-01 14:14 43.65224 7.20366 20 ft 6 kts 134°
2026-05-01 14:14 43.65182 7.20424 21 ft 11 kts 135°
2026-05-01 14:14 43.65102 7.20481 21 ft 14 kts 182°
2026-05-01 14:14 43.65027 7.20407 21 ft 13 kts 226°
2026-05-01 14:15 43.64963 7.20322 21 ft 12 kts 225°
2026-05-01 14:15 43.64906 7.20243 21 ft 12 kts 225°
2026-05-01 14:15 43.64850 7.20166 21 ft 11 kts 225°
2026-05-01 14:15 43.64785 7.20135 21 ft 9 kts 168°
2026-05-01 14:16 43.64739 7.20178 22 ft 7 kts 137°
2026-05-01 14:16 43.64715 7.20214 23 ft 3 kts 130°
2026-05-01 14:16 43.64699 7.20239 23 ft 4 kts 127°
2026-05-01 14:16 43.64700 7.20285 23 ft 4 kts 57°
2026-05-01 14:17 43.64731 7.20329 23 ft 15 kts 44°
2026-05-01 14:17 43.64968 7.20655 23 ft 84 kts 45°
2026-05-01 14:17 43.65533 7.21432 24 ft 142 kts 45°
2026-05-01 14:17 43.66337 7.22539 156 ft 174 kts 45°
2026-05-01 14:18 43.66855 7.23973 857 ft 171 kts 93°
2026-05-01 14:18 43.66422 7.25454 1467 ft 172 kts 133°
2026-05-01 14:18 43.65504 7.26614 1897 ft 186 kts 138°
2026-05-01 14:18 43.64843 7.27460 2166 ft 197 kts 137°
2026-05-01 14:19 43.63462 7.29269 2684 ft 216 kts 137°
2026-05-01 14:19 43.62351 7.30740 3303 ft 223 kts 137°
2026-05-01 14:19 43.61026 7.31822 4037 ft 225 kts 171°
2026-05-01 14:19 43.59493 7.31525 4756 ft 227 kts 208°
2026-05-01 14:20 43.58160 7.30349 5492 ft 229 kts 213°
2026-05-01 14:20 43.55551 7.27753 6912 ft 235 kts 233°
2026-05-01 14:20 43.54893 7.25661 7588 ft 239 kts 263°
2026-05-01 14:21 43.55099 7.23406 8240 ft 243 kts 294°
2026-05-01 14:21 43.56039 7.21464 8888 ft 246 kts 308°
2026-05-01 14:21 43.57094 7.19631 9528 ft 249 kts 308°
2026-05-01 14:22 43.59281 7.15819 10764 ft 257 kts 308°
2026-05-01 14:22 43.60422 7.13826 10943 ft 279 kts 309°
2026-05-01 14:22 43.61835 7.11831 11088 ft 303 kts 319°
2026-05-01 14:22 43.63522 7.09913 11218 ft 325 kts 320°
2026-05-01 14:23 43.65326 7.07865 11349 ft 346 kts 320°
2026-05-01 14:23 43.67208 7.05718 11716 ft 355 kts 320°
2026-05-01 14:23 43.69133 7.03520 12242 ft 360 kts 320°
2026-05-01 14:23 43.71066 7.01313 12768 ft 363 kts 320°
2026-05-01 14:24 43.73022 6.99076 13279 ft 366 kts 320°
2026-05-01 14:24 43.74993 6.96815 13756 ft 370 kts 320°
2026-05-01 14:24 43.76336 6.95272 14068 ft 372 kts 320°
2026-05-01 14:24 43.78331 6.92977 14522 ft 375 kts 320°
2026-05-01 14:25 43.80342 6.90665 14963 ft 378 kts 320°
2026-05-01 14:25 43.82372 6.88332 15404 ft 380 kts 320°
2026-05-01 14:25 43.84416 6.85984 15820 ft 383 kts 320°
2026-05-01 14:25 43.86473 6.83616 16219 ft 386 kts 320°
2026-05-01 14:26 43.88546 6.81224 16598 ft 388 kts 320°
2026-05-01 14:26 43.92726 6.76402 17299 ft 393 kts 320°
2026-05-01 14:26 43.94935 6.74149 17618 ft 396 kts 328°
2026-05-01 14:27 43.97320 6.72235 17934 ft 398 kts 329°
2026-05-01 14:27 43.99704 6.70330 18246 ft 400 kts 329°
2026-05-01 14:27 44.02119 6.68395 18544 ft 402 kts 329°
2026-05-01 14:28 44.07035 6.64453 19104 ft 407 kts 329°
2026-05-01 14:28 44.09489 6.62480 19377 ft 409 kts 329°
2026-05-01 14:28 44.11955 6.60491 19632 ft 411 kts 329°
2026-05-01 14:28 44.14431 6.58493 19874 ft 412 kts 329°
2026-05-01 14:29 44.16917 6.56487 20099 ft 414 kts 329°
2026-05-01 14:29 44.19413 6.54470 20317 ft 415 kts 329°
2026-05-01 14:30 44.26953 6.48369 20909 ft 420 kts 329°
2026-05-01 14:30 44.29485 6.46318 21092 ft 422 kts 329°
2026-05-01 14:30 44.32024 6.44257 21273 ft 423 kts 329°
2026-05-01 14:31 44.37122 6.40105 21617 ft 426 kts 329°
2026-05-01 14:31 44.39684 6.38018 21781 ft 427 kts 329°
2026-05-01 14:31 44.42253 6.35923 21936 ft 428 kts 329°
2026-05-01 14:31 44.44831 6.33822 22073 ft 429 kts 329°
2026-05-01 14:32 44.47413 6.31714 22208 ft 430 kts 329°
2026-05-01 14:32 44.50003 6.29594 22344 ft 431 kts 329°
2026-05-01 14:32 44.52595 6.27470 22476 ft 432 kts 329°
2026-05-01 14:32 44.55193 6.25341 22601 ft 433 kts 329°
2026-05-01 14:33 44.57795 6.23206 22729 ft 434 kts 329°
2026-05-01 14:33 44.60404 6.21066 22852 ft 435 kts 329°
2026-05-01 14:33 44.63014 6.18923 22977 ft 435 kts 329°
2026-05-01 14:33 44.65628 6.16771 23102 ft 436 kts 329°
2026-05-01 14:34 44.68242 6.14616 23227 ft 436 kts 329°
2026-05-01 14:34 44.70855 6.12460 23351 ft 437 kts 329°
2026-05-01 14:34 44.73480 6.10294 23476 ft 437 kts 329°
2026-05-01 14:34 44.76104 6.08126 23601 ft 437 kts 329°
2026-05-01 14:35 44.78726 6.05958 23725 ft 437 kts 329°
2026-05-01 14:35 44.81352 6.03784 23850 ft 438 kts 329°
2026-05-01 14:35 44.83974 6.01609 23974 ft 438 kts 329°
2026-05-01 14:35 44.86598 5.99428 24098 ft 438 kts 329°
2026-05-01 14:36 44.89221 5.97243 24223 ft 438 kts 329°
2026-05-01 14:36 44.91842 5.95057 24347 ft 438 kts 329°
2026-05-01 14:36 44.94461 5.92872 24471 ft 438 kts 329°
2026-05-01 14:36 44.97083 5.90685 24596 ft 437 kts 329°
2026-05-01 14:37 44.99703 5.88503 24720 ft 437 kts 329°
2026-05-01 14:37 45.02323 5.86321 24844 ft 437 kts 329°
2026-05-01 14:37 45.04942 5.84141 24969 ft 437 kts 329°
2026-05-01 14:37 45.07557 5.81960 25094 ft 436 kts 329°
2026-05-01 14:38 45.10145 5.79728 25218 ft 435 kts 327°
2026-05-01 14:38 45.12663 5.77455 25341 ft 435 kts 327°
2026-05-01 14:38 45.15214 5.75088 25467 ft 434 kts 326°
2026-05-01 14:38 45.17727 5.72731 25592 ft 433 kts 326°
2026-05-01 14:39 45.20239 5.70379 25716 ft 432 kts 326°
2026-05-01 14:39 45.22748 5.68041 25841 ft 431 kts 326°
2026-05-01 14:39 45.25226 5.65749 25964 ft 430 kts 327°
2026-05-01 14:39 45.27744 5.63434 26089 ft 430 kts 327°
2026-05-01 14:40 45.30255 5.61133 26213 ft 429 kts 327°
2026-05-01 14:40 45.32761 5.58837 26338 ft 428 kts 327°
2026-05-01 14:40 45.35263 5.56539 26463 ft 427 kts 327°
2026-05-01 14:40 45.37756 5.54240 26587 ft 427 kts 327°
2026-05-01 14:41 45.40244 5.51940 26712 ft 426 kts 326°
2026-05-01 14:41 45.42728 5.49639 26837 ft 426 kts 326°
2026-05-01 14:41 45.45207 5.47336 26961 ft 425 kts 326°
2026-05-01 14:41 45.47686 5.45035 27086 ft 424 kts 327°
2026-05-01 14:42 45.50276 5.43048 27211 ft 424 kts 336°
2026-05-01 14:42 45.52982 5.41389 27336 ft 423 kts 336°
2026-05-01 14:42 45.55684 5.39730 27461 ft 422 kts 336°
2026-05-01 14:42 45.58380 5.38066 27586 ft 422 kts 336°
2026-05-01 14:43 45.61076 5.36394 27710 ft 421 kts 336°
2026-05-01 14:43 45.63762 5.34725 27835 ft 421 kts 336°
2026-05-01 14:43 45.66444 5.33060 27960 ft 420 kts 336°
2026-05-01 14:43 45.69122 5.31397 28085 ft 419 kts 336°
2026-05-01 14:44 45.71789 5.29736 28210 ft 419 kts 336°
2026-05-01 14:44 45.77126 5.26407 28460 ft 417 kts 336°
2026-05-01 14:44 45.79784 5.24750 28584 ft 416 kts 336°
2026-05-01 14:45 45.82431 5.23095 28709 ft 416 kts 336°
2026-05-01 14:45 45.87720 5.19783 28958 ft 414 kts 336°
2026-05-01 14:45 45.90357 5.18132 29083 ft 413 kts 336°
2026-05-01 14:46 45.92989 5.16482 29208 ft 412 kts 336°
2026-05-01 14:46 45.98239 5.13186 29457 ft 411 kts 336°
2026-05-01 14:46 46.00855 5.11541 29582 ft 410 kts 336°
2026-05-01 14:47 46.03468 5.09896 29707 ft 410 kts 336°
2026-05-01 14:47 46.06076 5.08252 29832 ft 409 kts 336°
2026-05-01 14:47 46.08678 5.06604 29957 ft 408 kts 336°
2026-05-01 14:48 46.13867 5.03304 30206 ft 407 kts 336°
2026-05-01 14:48 46.16454 5.01651 30331 ft 406 kts 335°
2026-05-01 14:48 46.21615 4.98346 30581 ft 405 kts 336°
2026-05-01 14:49 46.26760 4.95064 30831 ft 404 kts 336°
2026-05-01 14:49 46.31888 4.91789 31080 ft 402 kts 335°
2026-05-01 14:50 46.35271 4.89617 31245 ft 401 kts 335°
2026-05-01 14:50 46.42082 4.85228 31579 ft 399 kts 335°
2026-05-01 14:51 46.44583 4.83613 31702 ft 398 kts 335°
2026-05-01 14:51 46.49639 4.80356 31951 ft 397 kts 335°
2026-05-01 14:52 46.54667 4.77113 32201 ft 395 kts 335°
2026-05-01 14:52 46.57179 4.75483 32326 ft 394 kts 335°
2026-05-01 14:52 46.62198 4.72221 32576 ft 392 kts 335°
2026-05-01 14:53 46.64650 4.70625 32699 ft 391 kts 335°
2026-05-01 14:53 46.67128 4.69014 32824 ft 390 kts 335°
2026-05-01 14:53 46.69599 4.67407 32949 ft 388 kts 335°
2026-05-01 14:53 46.72062 4.65801 33074 ft 387 kts 335°
2026-05-01 14:54 46.74517 4.64199 33198 ft 386 kts 335°
2026-05-01 14:54 46.76963 4.62601 33323 ft 385 kts 335°
2026-05-01 14:54 46.79401 4.61006 33447 ft 383 kts 335°
2026-05-01 14:54 46.81861 4.59396 33573 ft 382 kts 335°
2026-05-01 14:55 46.84282 4.57816 33698 ft 380 kts 335°
2026-05-01 14:55 46.86696 4.56248 33823 ft 379 kts 335°
2026-05-01 14:55 46.89096 4.54689 33970 ft 377 kts 335°
2026-05-01 14:56 46.93905 4.51567 34009 ft 380 kts 335°
2026-05-01 14:56 46.98758 4.48407 34010 ft 384 kts 335°
2026-05-01 14:57 47.03668 4.45204 34010 ft 388 kts 335°
2026-05-01 14:57 47.11085 4.40338 34010 ft 394 kts 335°
2026-05-01 14:58 47.16110 4.37041 34009 ft 397 kts 335°
2026-05-01 14:58 47.21180 4.33702 34009 ft 401 kts 335°
2026-05-01 14:59 47.26282 4.30332 34009 ft 404 kts 335°
2026-05-01 14:59 47.31423 4.26933 34009 ft 406 kts 335°
2026-05-01 15:00 47.39191 4.21777 34009 ft 410 kts 335°
2026-05-01 15:01 47.44402 4.18320 34009 ft 412 kts 335°
2026-05-01 15:01 47.49649 4.14830 34009 ft 414 kts 335°
2026-05-01 15:02 47.54908 4.11318 34009 ft 416 kts 335°
2026-05-01 15:02 47.60196 4.07778 34009 ft 418 kts 335°
2026-05-01 15:03 47.65511 4.04228 34009 ft 420 kts 335°
2026-05-01 15:03 47.70847 4.00653 34009 ft 422 kts 335°
2026-05-01 15:04 47.76203 3.97054 34009 ft 423 kts 335°
2026-05-01 15:04 47.81541 3.93460 34009 ft 425 kts 335°
2026-05-01 15:05 47.86929 3.89817 34009 ft 426 kts 335°
2026-05-01 15:05 47.92331 3.86153 34009 ft 427 kts 335°
2026-05-01 15:06 47.97749 3.82483 34009 ft 428 kts 335°
2026-05-01 15:06 48.02301 3.79395 34009 ft 429 kts 335°
2026-05-01 15:07 48.07734 3.75697 34009 ft 430 kts 335°
2026-05-01 15:07 48.13134 3.71941 34008 ft 431 kts 331°
2026-05-01 15:08 48.17932 3.66630 34009 ft 430 kts 314°
2026-05-01 15:08 48.21998 3.60037 34009 ft 431 kts 312°
2026-05-01 15:09 48.26070 3.53433 34009 ft 432 kts 312°
2026-05-01 15:09 48.30146 3.46798 34009 ft 433 kts 312°
2026-05-01 15:10 48.34219 3.40130 34009 ft 433 kts 312°
2026-05-01 15:10 48.40589 3.30480 34009 ft 435 kts 323°
2026-05-01 15:11 48.48693 3.24388 34009 ft 436 kts 337°
2026-05-01 15:12 48.54276 3.20830 34009 ft 436 kts 336°
2026-05-01 15:12 48.62669 3.15457 34009 ft 437 kts 336°
2026-05-01 15:14 48.76651 3.06455 34009 ft 439 kts 336°
2026-05-01 15:14 48.85043 3.00885 34009 ft 439 kts 330°
2026-05-01 15:15 48.95646 2.91631 34009 ft 440 kts 329°
2026-05-01 15:16 49.06261 2.82324 34009 ft 441 kts 329°
2026-05-01 15:18 49.19539 2.70597 34009 ft 441 kts 329°
2026-05-01 15:19 49.30144 2.61191 34009 ft 442 kts 329°
2026-05-01 15:19 49.38116 2.54066 34009 ft 442 kts 329°
2026-05-01 15:20 49.46099 2.46922 34009 ft 443 kts 329°
2026-05-01 15:21 49.51383 2.42040 34008 ft 443 kts 323°
2026-05-01 15:21 49.56101 2.35960 34009 ft 442 kts 319°
2026-05-01 15:22 49.63099 2.26661 34009 ft 443 kts 319°
2026-05-01 15:22 49.67740 2.20482 34009 ft 443 kts 319°
2026-05-01 15:23 49.72408 2.14255 34009 ft 443 kts 319°
2026-05-01 15:23 49.77067 2.08016 34009 ft 444 kts 319°
2026-05-01 15:24 49.81730 2.01753 34009 ft 444 kts 319°
2026-05-01 15:24 49.86390 1.95474 34009 ft 444 kts 319°
2026-05-01 15:25 49.91049 1.89182 34009 ft 444 kts 319°
2026-05-01 15:25 49.95711 1.82880 34009 ft 444 kts 318°
2026-05-01 15:26 50.00382 1.76531 33761 ft 451 kts 318°
2026-05-01 15:26 50.02727 1.73342 33492 ft 457 kts 318°
2026-05-01 15:26 50.05157 1.70028 32441 ft 471 kts 318°
2026-05-01 15:27 50.07641 1.66640 31400 ft 477 kts 318°
2026-05-01 15:27 50.10155 1.63223 30474 ft 480 kts 319°
2026-05-01 15:27 50.12656 1.59837 29904 ft 474 kts 319°
2026-05-01 15:28 50.17612 1.53139 28541 ft 473 kts 319°
2026-05-01 15:28 50.20096 1.49781 27863 ft 472 kts 319°
2026-05-01 15:28 50.22566 1.46417 27187 ft 468 kts 318°
2026-05-01 15:29 50.27411 1.39771 25837 ft 459 kts 318°
2026-05-01 15:29 50.29803 1.36485 25160 ft 455 kts 318°
2026-05-01 15:29 50.34512 1.30004 23808 ft 446 kts 318°
2026-05-01 15:30 50.39129 1.23645 22456 ft 438 kts 318°
2026-05-01 15:31 50.47984 1.11439 20992 ft 412 kts 318°
2026-05-01 15:31 50.52168 1.05458 20037 ft 400 kts 313°
2026-05-01 15:32 50.55925 0.99132 19078 ft 392 kts 313°
2026-05-01 15:32 50.59603 0.92922 18112 ft 384 kts 312°
2026-05-01 15:33 50.65003 0.83788 16660 ft 376 kts 312°
2026-05-01 15:34 50.70219 0.74542 14529 ft 387 kts 308°